Location: Bacharowice
(49.9333°N, 19.5833°E)
Time: 08:20:04
(UTC+00:00)

Cosmos 2344 - Pass Details

Date: 26 September 2021
Orbit: 1235 x 3007 km, 63.3° (Epoch: 19 October)

Event Time Altitude Azimuth Distance (km) Brightness Sun altitude
Rises 23:30:04 0° 316° (NW) 4,586 6.8 -40.2°
Reaches altitude 10° 23:32:49 10° 311° (NW) 3,756 6.2 -40.0°
Enters shadow 23:37:18 32° 291° (WNW) 2,688 5.1 -39.8°
